FW2569 Weather Reports


Display with metric or nautical units.
time (UTC)temp
F
wind
direction
speed
MPH
gust
MPH
rain 1hr
in
rain 24hr
in
rain mn
in
humidity
%
barometer
mb
20260505040006 0 0.0 0.0 0.00 0.00 0.00 1009.0
20260505033054 0 0.0 0.0 0.00 0.00 0.00 1008.7
20260505031523 0 0.0 0.0 0.00 0.00 0.00 1008.8
20260505024504 0 0.0 0.0 0.00 0.00 0.00 1008.8
20260505021550 73 167 3.0 9.0 0.00 0.00 0.00 83 1008.7
20260505020115 74 195 3.0 9.0 0.00 0.00 0.00 82 1008.4
20260505014538 74 164 4.0 8.0 0.00 0.00 0.00 81 1008.4
20260505013014 75 162 5.0 10.0 0.00 0.00 0.00 80 1008.3
20260505011552 75 176 4.0 10.0 0.00 0.00 0.00 79 1008.3
20260505010015 76 176 4.0 12.0 0.00 0.00 0.00 78 1008.1
20260505004550 77 149 8.0 13.0 0.00 0.00 0.00 77 1008.0
20260505003028 77 158 4.0 10.0 0.00 0.00 0.00 77 1008.1
20260505001506 78 176 8.0 13.0 0.00 0.00 0.00 76 1008.2
20260505000052 79 136 7.0 12.0 0.00 0.00 0.00 73 1008.3
20260504234504 79 159 5.0 12.0 0.00 0.00 0.00 74 1008.4
20260504233046 79 162 6.0 13.0 0.00 0.00 0.00 72 1008.4
20260504231515 81 148 7.0 13.0 0.00 0.00 0.00 69 1008.6
20260504230112 83 144 6.0 13.0 0.00 0.00 0.00 66 1008.5
20260504224509 83 218 8.0 13.0 0.00 0.00 0.00 65 1008.7
20260504223046 82 140 7.0 12.0 0.00 0.00 0.00 67 1009.0
20260504221524 82 205 10.0 13.0 0.00 0.00 0.00 67 1008.9
20260504214533 83 160 6.0 11.0 0.00 0.00 0.00 66 1009.2
20260504213051 82 161 7.0 13.0 0.00 0.00 0.00 67 1009.5
20260504211532 82 146 6.0 12.0 0.00 0.00 0.00 69 1009.7
20260504210012 0 0.0 0.0 0.00 0.00 0.00 1010.1
20260504203055 0 0.0 0.0 0.00 0.00 0.00 1010.7
20260504201513 83 165 5.0 10.0 0.00 0.00 0.00 67 1011.0
20260504200013 0 0.0 0.0 0.00 0.00 0.00 1011.1
20260504194643 0 0.0 0.0 0.00 0.00 0.00 1011.4
20260504193002 0 0.0 0.0 0.00 0.00 0.00 1011.9
20260504190101 0 0.0 0.0 0.00 0.00 0.00 1011.9
20260504184627 0 0.0 0.0 0.00 0.00 0.00 1012.4
20260504183042 0 0.0 0.0 0.00 0.00 0.00 1012.5
20260504180014 79 191 7.0 12.0 0.00 0.00 0.00 67 1013.1
20260504174554 0 0.0 0.0 0.00 0.00 0.00 1013.0
20260504171537 0 0.0 0.0 0.00 0.00 0.00 1013.4
20260504120200 0 0.0 0.0 0.00 0.00 0.00 1014.4
20260504100110 0 0.0 0.0 0.00 0.00 0.00 1014.6
20260504081626 0 0.0 0.0 0.00 0.00 0.00 1015.0
20260504070144 0 0.0 0.0 0.00 0.00 0.00 1016.2
20260504050114 0 0.0 0.0 0.00 0.00 0.00 1016.9